Time,TemperatureF,DewpointF,PressureIn,WindDirection,WindDirectionDegrees,WindSpeedMPH,WindSpeedGustMPH,Humidity,HourlyPrecipIn,Conditions,Clouds,dailyrainin,SolarRadiationWatts/m^2,SoftwareType,DateUTC
2013-05-04 00:11:00,29.1,15.0,29.84,SE,130,7.0,18.0,55,0.00,,,0.00,0,weatherlink.com 1.10,2013-05-04 06:11:00,
2013-05-04 00:26:00,29.1,15.0,29.83,ESE,107,10.0,22.0,55,0.00,,,0.00,0,weatherlink.com 1.10,2013-05-04 06:26:00,
2013-05-04 00:41:00,28.8,14.0,29.83,SE,128,12.0,17.0,55,0.00,,,0.00,0,weatherlink.com 1.10,2013-05-04 06:41:00,
2013-05-04 00:56:00,28.3,14.0,29.82,ESE,105,13.0,18.0,56,0.00,,,0.00,0,weatherlink.com 1.10,2013-05-04 06:56:00,
2013-05-04 01:11:00,27.9,14.0,29.82,SE,139,12.0,16.0,57,0.00,,,0.00,0,weatherlink.com 1.10,2013-05-04 07:11:00,
2013-05-04 01:26:00,27.5,15.0,29.81,SE,137,10.0,17.0,59,0.00,,,0.00,0,weatherlink.com 1.10,2013-05-04 07:26:00,
2013-05-04 01:41:00,27.0,15.0,29.80,ESE,107,8.0,17.0,60,0.00,,,0.00,0,weatherlink.com 1.10,2013-05-04 07:41:00,
2013-05-04 01:56:00,26.3,15.0,29.80,ESE,113,7.0,11.0,62,0.00,,,0.00,0,weatherlink.com 1.10,2013-05-04 07:56:00,
2013-05-04 02:12:00,25.8,15.0,29.79,ESE,114,10.0,12.0,63,0.00,,,0.00,0,weatherlink.com 1.10,2013-05-04 08:12:00,
2013-05-04 02:27:00,25.4,15.0,29.79,ESE,121,8.0,13.0,64,0.00,,,0.00,0,weatherlink.com 1.10,2013-05-04 08:27:00,
2013-05-04 02:42:00,25.2,15.0,29.79,ESE,103,8.0,10.0,64,0.00,,,0.00,0,weatherlink.com 1.10,2013-05-04 08:42:00,
2013-05-04 02:57:00,24.8,15.0,29.79,ESE,107,5.0,10.0,65,0.00,,,0.00,0,weatherlink.com 1.10,2013-05-04 08:57:00,
2013-05-04 03:12:00,24.5,14.0,29.79,ESE,107,5.0,10.0,65,0.00,,,0.00,0,weatherlink.com 1.10,2013-05-04 09:12:00,
2013-05-04 03:27:00,24.2,14.0,29.78,East,99,7.0,8.0,65,0.00,,,0.00,0,weatherlink.com 1.10,2013-05-04 09:27:00,
2013-05-04 03:42:00,24.1,14.0,29.77,ESE,106,5.0,9.0,65,0.00,,,0.00,0,weatherlink.com 1.10,2013-05-04 09:42:00,
2013-05-04 03:57:00,23.9,14.0,29.77,ESE,112,5.0,8.0,65,0.00,,,0.00,0,weatherlink.com 1.10,2013-05-04 09:57:00,
2013-05-04 04:12:00,23.9,14.0,29.77,ESE,113,5.0,8.0,65,0.00,,,0.00,0,weatherlink.com 1.10,2013-05-04 10:12:00,
2013-05-04 04:27:00,23.9,13.0,29.77,ESE,106,5.0,7.0,64,0.00,,,0.00,0,weatherlink.com 1.10,2013-05-04 10:27:00,
2013-05-04 04:42:00,23.9,13.0,29.77,ESE,114,2.0,7.0,64,0.00,,,0.00,0,weatherlink.com 1.10,2013-05-04 10:42:00,
2013-05-04 04:57:00,23.9,13.0,29.77,ESE,123,0.0,3.0,64,0.00,,,0.00,0,weatherlink.com 1.10,2013-05-04 10:57:00,
2013-05-04 05:12:00,24.3,13.0,29.77,ESE,123,0.0,0.0,62,0.00,,,0.00,0,weatherlink.com 1.10,2013-05-04 11:12:00,
2013-05-04 05:27:00,24.5,13.0,29.77,ESE,123,0.0,2.0,62,0.00,,,0.00,0,weatherlink.com 1.10,2013-05-04 11:27:00,
2013-05-04 05:42:00,24.9,13.0,29.77,ESE,123,0.0,2.0,61,0.00,,,0.00,0,weatherlink.com 1.10,2013-05-04 11:42:00,
2013-05-04 06:12:00,24.9,13.0,29.77,ESE,123,0.0,0.0,61,0.00,,,0.00,9,weatherlink.com 1.10,2013-05-04 12:12:00,
2013-05-04 06:27:00,24.6,14.0,29.77,ESE,123,0.0,0.0,64,0.00,,,0.00,19,weatherlink.com 1.10,2013-05-04 12:27:00,
2013-05-04 06:42:00,25.7,14.0,29.78,ESE,123,0.0,2.0,62,0.00,,,0.00,58,weatherlink.com 1.10,2013-05-04 12:42:00,
2013-05-04 06:57:00,27.2,16.0,29.78,ESE,123,0.0,2.0,62,0.00,,,0.00,114,weatherlink.com 1.10,2013-05-04 12:57:00,
2013-05-04 07:12:00,29.0,17.0,29.78,ESE,123,0.0,2.0,61,0.00,,,0.00,155,weatherlink.com 1.10,2013-05-04 13:12:00,
2013-05-04 07:27:00,31.1,16.0,29.78,ESE,123,0.0,1.0,54,0.00,,,0.00,200,weatherlink.com 1.10,2013-05-04 13:27:00,
2013-05-04 07:42:00,32.9,17.0,29.78,ESE,123,0.0,1.0,52,0.00,,,0.00,251,weatherlink.com 1.10,2013-05-04 13:42:00,
2013-05-04 07:57:00,34.4,16.0,29.78,ENE,74,0.0,3.0,47,0.00,,,0.00,302,weatherlink.com 1.10,2013-05-04 13:57:00,
2013-05-04 08:12:00,34.5,16.0,29.78,WNW,293,3.0,3.0,48,0.00,,,0.00,330,weatherlink.com 1.10,2013-05-04 14:12:00,
2013-05-04 08:27:00,34.6,18.0,29.77,WNW,292,1.0,3.0,51,0.00,,,0.00,417,weatherlink.com 1.10,2013-05-04 14:27:00,
2013-05-04 08:43:00,35.8,18.0,29.77,NW,305,1.0,4.0,48,0.00,,,0.00,455,weatherlink.com 1.10,2013-05-04 14:43:00,
2013-05-04 08:58:00,37.1,16.0,29.77,NNW,328,2.0,4.0,43,0.00,,,0.00,524,weatherlink.com 1.10,2013-05-04 14:58:00,
2013-05-04 09:13:00,38.7,17.0,29.78,ESE,103,3.0,9.0,42,0.00,,,0.00,577,weatherlink.com 1.10,2013-05-04 15:13:00,
2013-05-04 09:28:00,38.5,17.0,29.77,ESE,115,9.0,14.0,42,0.00,,,0.00,592,weatherlink.com 1.10,2013-05-04 15:28:00,
2013-05-04 09:43:00,38.6,16.0,29.77,East,84,7.0,13.0,40,0.00,,,0.00,677,weatherlink.com 1.10,2013-05-04 15:43:00,
2013-05-04 09:58:00,38.8,16.0,29.77,ENE,64,7.0,13.0,39,0.00,,,0.00,715,weatherlink.com 1.10,2013-05-04 15:58:00,
2013-05-04 10:13:00,40.0,17.0,29.77,East,86,5.0,10.0,39,0.00,,,0.00,756,weatherlink.com 1.10,2013-05-04 16:13:00,
2013-05-04 10:28:00,40.4,18.0,29.76,East,84,13.0,15.0,40,0.00,,,0.00,796,weatherlink.com 1.10,2013-05-04 16:28:00,
2013-05-04 10:43:00,41.1,16.0,29.76,ESE,119,10.0,11.0,37,0.00,,,0.00,838,weatherlink.com 1.10,2013-05-04 16:43:00,
2013-05-04 10:58:00,40.4,16.0,29.77,SSE,150,6.0,15.0,37,0.00,,,0.00,865,weatherlink.com 1.10,2013-05-04 16:58:00,
2013-05-04 11:13:00,41.9,18.0,29.76,ESE,103,17.0,21.0,38,0.00,,,0.00,893,weatherlink.com 1.10,2013-05-04 17:13:00,
2013-05-04 11:28:00,42.9,19.0,29.77,East,86,13.0,17.0,39,0.00,,,0.00,926,weatherlink.com 1.10,2013-05-04 17:28:00,
2013-05-04 11:43:00,43.4,20.0,29.76,East,96,14.0,23.0,39,0.00,,,0.00,947,weatherlink.com 1.10,2013-05-04 17:43:00,
2013-05-04 11:58:00,43.1,19.0,29.77,East,88,7.0,16.0,38,0.00,,,0.00,977,weatherlink.com 1.10,2013-05-04 17:58:00,
2013-05-04 12:13:00,43.0,19.0,29.76,East,88,10.0,16.0,38,0.00,,,0.00,997,weatherlink.com 1.10,2013-05-04 18:13:00,
2013-05-04 12:28:00,43.0,18.0,29.76,East,85,13.0,16.0,36,0.00,,,0.00,990,weatherlink.com 1.10,2013-05-04 18:28:00,
2013-05-04 12:43:00,44.7,18.0,29.76,East,86,11.0,22.0,35,0.00,,,0.00,1016,weatherlink.com 1.10,2013-05-04 18:43:00,
2013-05-04 12:58:00,44.6,19.0,29.75,East,88,7.0,16.0,36,0.00,,,0.00,998,weatherlink.com 1.10,2013-05-04 18:58:00,
2013-05-04 13:14:00,44.6,18.0,29.75,ENE,76,13.0,22.0,35,0.00,,,0.00,986,weatherlink.com 1.10,2013-05-04 19:14:00,
2013-05-04 13:29:00,44.8,19.0,29.75,East,86,16.0,23.0,35,0.00,,,0.00,1023,weatherlink.com 1.10,2013-05-04 19:29:00,
2013-05-04 13:44:00,44.5,18.0,29.75,SE,140,11.0,18.0,35,0.00,,,0.00,819,weatherlink.com 1.10,2013-05-04 19:44:00,
2013-05-04 13:59:00,44.3,18.0,29.74,ESE,120,13.0,22.0,35,0.00,,,0.00,742,weatherlink.com 1.10,2013-05-04 19:59:00,
2013-05-04 14:14:00,44.3,19.0,29.74,East,83,13.0,24.0,36,0.00,,,0.00,378,weatherlink.com 1.10,2013-05-04 20:14:00,
2013-05-04 14:29:00,43.9,18.0,29.75,East,101,9.0,21.0,36,0.00,,,0.00,626,weatherlink.com 1.10,2013-05-04 20:29:00,
2013-05-04 14:44:00,43.6,18.0,29.76,ESE,111,14.0,15.0,36,0.00,,,0.00,297,weatherlink.com 1.10,2013-05-04 20:44:00,
2013-05-04 14:59:00,41.9,18.0,29.77,South,177,0.0,12.0,39,0.00,,,0.00,401,weatherlink.com 1.10,2013-05-04 20:59:00,
2013-05-04 15:14:00,43.5,19.0,29.77,SSE,164,1.0,5.0,37,0.00,,,0.00,302,weatherlink.com 1.10,2013-05-04 21:14:00,
2013-05-04 15:29:00,42.9,19.0,29.77,East,97,14.0,18.0,38,0.00,,,0.00,309,weatherlink.com 1.10,2013-05-04 21:29:00,
2013-05-04 15:44:00,44.4,19.0,29.76,ESE,105,12.0,14.0,37,0.00,,,0.00,181,weatherlink.com 1.10,2013-05-04 21:44:00,
2013-05-04 15:59:00,44.1,19.0,29.76,East,92,8.0,15.0,36,0.00,,,0.00,817,weatherlink.com 1.10,2013-05-04 21:59:00,
2013-05-04 16:14:00,45.0,19.0,29.76,ESE,120,11.0,18.0,35,0.00,,,0.00,761,weatherlink.com 1.10,2013-05-04 22:14:00,
2013-05-04 16:29:00,42.8,18.0,29.76,ESE,109,12.0,16.0,37,0.00,,,0.00,172,weatherlink.com 1.10,2013-05-04 22:29:00,
2013-05-04 16:44:00,42.5,18.0,29.77,East,98,10.0,21.0,37,0.00,,,0.00,390,weatherlink.com 1.10,2013-05-04 22:44:00,
2013-05-04 16:59:00,42.6,18.0,29.77,SE,127,13.0,22.0,37,0.00,,,0.00,267,weatherlink.com 1.10,2013-05-04 22:59:00,
2013-05-04 17:14:00,41.7,17.0,29.78,East,89,16.0,19.0,37,0.00,,,0.00,144,weatherlink.com 1.10,2013-05-04 23:14:00,
2013-05-04 17:29:00,40.0,16.0,29.79,SE,124,10.0,22.0,38,0.00,,,0.00,127,weatherlink.com 1.10,2013-05-04 23:29:00,
2013-05-04 17:44:00,40.0,17.0,29.80,ESE,114,11.0,17.0,39,0.00,,,0.00,134,weatherlink.com 1.10,2013-05-04 23:44:00,
2013-05-04 17:59:00,39.5,17.0,29.80,ESE,103,15.0,21.0,40,0.00,,,0.00,109,weatherlink.com 1.10,2013-05-04 23:59:00,
2013-05-04 18:14:00,38.9,16.0,29.81,ESE,109,12.0,20.0,40,0.00,,,0.00,77,weatherlink.com 1.10,2013-05-05 00:14:00,
2013-05-04 18:29:00,38.8,17.0,29.82,ESE,108,10.0,19.0,41,0.00,,,0.00,79,weatherlink.com 1.10,2013-05-05 00:29:00,
2013-05-04 18:44:00,38.3,17.0,29.82,SE,124,14.0,21.0,42,0.00,,,0.00,44,weatherlink.com 1.10,2013-05-05 00:44:00,
2013-05-04 18:59:00,37.6,17.0,29.83,ESE,109,13.0,21.0,43,0.00,,,0.00,19,weatherlink.com 1.10,2013-05-05 00:59:00,
2013-05-04 19:14:00,37.3,17.0,29.84,SSE,148,11.0,18.0,44,0.00,,,0.00,25,weatherlink.com 1.10,2013-05-05 01:14:00,
2013-05-04 19:29:00,37.0,17.0,29.85,East,101,5.0,18.0,44,0.00,,,0.00,9,weatherlink.com 1.10,2013-05-05 01:29:00,
2013-05-04 19:44:00,35.8,20.0,29.86,ESE,110,5.0,15.0,53,0.00,,,0.00,0,weatherlink.com 1.10,2013-05-05 01:44:00,
2013-05-04 19:59:00,34.7,20.0,29.87,SE,146,9.0,17.0,55,0.00,,,0.00,0,weatherlink.com 1.10,2013-05-05 01:59:00,
2013-05-04 20:14:00,33.5,21.0,29.87,East,100,9.0,16.0,61,0.00,,,0.00,0,weatherlink.com 1.10,2013-05-05 02:14:00,
2013-05-04 20:29:00,32.2,22.0,29.87,East,94,14.0,23.0,67,0.00,,,0.00,0,weatherlink.com 1.10,2013-05-05 02:29:00,
2013-05-04 20:44:00,31.3,24.0,29.87,East,92,14.0,19.0,73,0.00,,,0.00,0,weatherlink.com 1.10,2013-05-05 02:44:00,
2013-05-04 20:59:00,30.5,23.0,29.88,ESE,111,12.0,17.0,75,0.00,,,0.00,0,weatherlink.com 1.10,2013-05-05 02:59:00,
2013-05-04 21:14:00,31.1,23.0,29.88,East,84,15.0,18.0,71,0.00,,,0.00,0,weatherlink.com 1.10,2013-05-05 03:14:00,
2013-05-04 21:29:00,32.1,21.0,29.89,ESE,105,12.0,18.0,65,0.00,,,0.00,0,weatherlink.com 1.10,2013-05-05 03:29:00,
2013-05-04 21:44:00,32.6,21.0,29.90,ESE,122,9.0,14.0,62,0.00,,,0.00,0,weatherlink.com 1.10,2013-05-05 03:44:00,
2013-05-04 21:59:00,33.0,20.0,29.90,SE,132,9.0,17.0,58,0.00,,,0.00,0,weatherlink.com 1.10,2013-05-05 03:59:00,
2013-05-04 22:14:00,32.5,20.0,29.89,ESE,106,20.0,26.0,60,0.00,,,0.00,0,weatherlink.com 1.10,2013-05-05 04:14:00,
2013-05-04 22:29:00,30.1,20.0,29.89,ESE,123,10.0,27.0,67,0.00,,,0.00,0,weatherlink.com 1.10,2013-05-05 04:29:00,
2013-05-04 22:44:00,30.7,18.0,29.90,East,98,15.0,28.0,60,0.00,,,0.00,0,weatherlink.com 1.10,2013-05-05 04:44:00,
2013-05-04 22:59:00,30.6,18.0,29.89,ESE,123,13.0,25.0,59,0.00,,,0.00,0,weatherlink.com 1.10,2013-05-05 04:59:00,
2013-05-04 23:14:00,29.9,17.0,29.91,East,95,13.0,24.0,58,0.00,,,0.00,0,weatherlink.com 1.10,2013-05-05 05:14:00,
2013-05-04 23:29:00,29.2,16.0,29.91,SE,126,13.0,21.0,59,0.00,,,0.00,0,weatherlink.com 1.10,2013-05-05 05:29:00,
2013-05-04 23:44:00,28.5,16.0,29.90,ESE,117,18.0,23.0,60,0.00,,,0.00,0,weatherlink.com 1.10,2013-05-05 05:44:00,
2013-05-04 23:59:00,27.9,16.0,29.90,SE,132,11.0,22.0,60,0.00,,,0.00,0,weatherlink.com 1.10,2013-05-05 05:59:00,